Hourly Data Report for September 15, 2017

All times are specified in Local Standard Time (LST). Add 1 hour to adjust for Daylight Saving Time where and when it is observed.

IQALUIT CLIMATE
NUNAVUT

63°44'50.000" N
68°32'40.000" W
33.50 m
2402592
71321
XFB

Download Data

Hourly Data (September 2017)
Hourly Data Report for September 15, 2017
Temp Definition
°C
Dew Point Temp Definition
°C
Rel Hum Definition
%
Wind Dir Definition
10's deg

Wind Spd Definition
km/h
Visibility Definition
km
Stn Press Definition
kPa
Hmdx Definition


Wind Chill Definition


Weather Definition


TIME
00:00 4.5 2.3 86 13 17   99.99     LegendNANA
01:00 3.4 2.1 91 12 4   100.01     LegendNANA
02:00 3.6 2.3 91 13 2   100.03     LegendNANA
03:00 3.7 2.4 91 23 2   100.06     LegendNANA
04:00 4.1 2.6 90 0 1   100.10     LegendNANA
05:00 3.6 2.7 94 33 4   100.12     LegendNANA
06:00 3.9 2.8 93 33 13   100.18     LegendNANA
07:00 4.3 2.4 88 32 16   100.23     LegendNANA
08:00 3.8 1.1 83 31 19   100.29     LegendNANA
09:00 4.7 1.8 82 32 25   100.30     LegendNANA
10:00 4.3 1.1 80 31 21   100.32     LegendNANA
11:00 4.8 1.3 78 31 26   100.32     LegendNANA
12:00 4.6 0.2 73 31 27   100.34     LegendNANA
13:00 5.0 0.3 72 31 25   100.40     LegendNANA
14:00 5.2 -0.4 67 33 28   100.42     LegendNANA
15:00 5.3 0.1 69 32 27   100.45     LegendNANA
16:00 5.3 -0.2 68 33 21   100.50     LegendNANA
17:00 5.0 -0.4 68 33 25   100.53     LegendNANA
18:00 4.8 -0.6 68 32 20   100.57     LegendNANA
19:00 3.7 -0.6 73 31 21   100.61     LegendNANA
20:00 2.6 -0.6 80 32 17   100.64     LegendNANA
21:00 2.1 -0.7 82 32 16   100.66     LegendNANA
22:00 0.9 -1.1 86 32 15   100.67     LegendNANA
23:00 0.1 -1.5 89 32 11   100.70     LegendNANA

Notes on Data Quality.

Legend

  • E = Estimated
  • M = Missing
  • NA = Not Available
  • ‡ = Partner data that is not subject to review by the National Climate Archives
Date modified: